Regional Weather Roundup
Issued by NWS

Home | Current Version | Previous Version | Text Only | Print | Product List | Glossary On
Versions: 1 2 3 4 5 6 7 8 9 10 11 12 13 14 15 16 17 18 19 20 21 22 23 24 25 26 27 28 29 30 31 32 33 34 35 36 37 38 39 40 41 42 43 44 45 46 47 48 49 50
000
ASCA42 TJSJ 301510
RWRPR
PUERTO RICO/U.S. VIRGIN ISLANDS HOURLY WEATHER ROUNDUP
NATIONAL WEATHER SERVICE SAN JUAN PR
1100 AM AST SUN APR 30 2017

PRZ001>002-007>008-010-301600-
PUERTO RICO

CITY           SKY/WX    TMP DP  RH WIND       PRES   REMARKS
SAN JUAN LMM   LGT RAIN  79  75  89 E13       30.09S
AGUADILLA      PTSUNNY   79  68  69 E20G29    30.08F
CEIBA          CLOUDY    79  75  89 E6        30.11S
$$

VIZ001>002-301600-
U.S. VIRGIN ISLANDS

CITY           SKY/WX    TMP DP  RH WIND       PRES   REMARKS
CHARLOTTE AMA  MOSUNNY   81  73  78 E17G23    30.07F
CHRISTIANSTED  MOSUNNY   82  72  69 E17       30.07F
$$

HOURLY WEATHER ROUNDUP FOR THE NEWS MEDIA

CITY           SKY/WX    TMP DP  RH WIND       PRES   REMARKS
ORLANDO        CLOUDY    81  67  62 S15       30.13R
NEW YORK       CLOUDY    63  42  46 E12       30.24F
NEWARK         CLOUDY    63  39  41 VRB6      30.22F
CHICAGO        LGT RAIN  45  43  93 NE9       29.79S FOG
HARTFORD       SUNNY     55  37  50 E13       30.27F
BOSTON         PTSUNNY   49  34  56 E16       30.31R
DALLAS         MOSUNNY   54  37  52 W18G26    29.83R
PHILADELPHIA   CLOUDY    69  49  48 E13       30.19F
LOS ANGELES    SUNNY     66  34  30 E6        30.07R
WASHINGTON DC  PTSUNNY   76  68  76 CALM      30.10F


USA.gov is the U.S. government's official web portal to all federal, state and local government web resources and services.